Temp
45 45 44 43 42 42 41 40 40 40 39 38 37 38 37 37 37 36 36 36 36 35 35 34 34 33 33 32 31 31 31 31 32 31 30 30 29 28 29 28 28 27
44 44 44 43 41 41 40 40 39 39 38 38 38 37 37 36 36 35 35 35 35 34 34 33 33 32 31 31 30 30 30 30 30 32 29 29 28 28 28 27 28 30
43 42 41 40 40 39 40 39 39 38 38 37 37 37 37 36 35 34 34 34 33 33 33 32 32 31 31 30 30 30 29 29 29 29 29 28 28 28 28 29 30 30
41 41 40 40 39 38 38 38 37 38 37 36 35 36 36 36 35 34 33 34 32 32 31 31 31 31 30 29 29 29 29 29 28 29 28 29 29 29 30 30 30 30
40 39 39 38 38 38 38 37 36 36 35 35 35 34 35 33 33 32 32 31 31 31 31 30 30 29 29 29 28 27 28 27 29 29 28 28 29 30 30 30 29 28
39 38 37 37 37 37 37 35 35 34 34 34 34 34 32 32 31 31 31 30 30 30 29 29 28 28 28 27 27 27 27 27 28 29 28 27 28 29 29 29 28 27
37 37 37 37 37 37 36 35 34 34 32 33 33 32 32 31 30 30 30 30 29 29 28 27 27 27 27 27 26 25 26 27 28 28 27 27 28 28 29 28 27 27
36 36 36 36 36 35 35 33 32 32 32 32 31 31 31 30 30 29 29 29 28 28 27 27 26 26 26 26 25 25 26 28 27 27 27 27 27 27 27 28 27 26
36 36 35 35 34 33 32 33 32 32 32 30 30 30 30 30 30 29 29 28 27 27 26 26 25 25 25 25 25 25 26 27 27 27 26 26 26 27 27 27 26 26
35 35 35 34 32 32 32 31 32 31 31 30 30 30 29 29 29 28 28 27 26 25 25 25 25 25 24 24 25 26 26 26 27 27 27 27 27 27 27 27 26 24
34 34 33 32 32 32 31 31 31 30 30 29 29 29 28 28 28 27 27 26 26 25 25 24 24 24 23 23 25 26 26 26 27 27 27 27 28 28 28 26 25 23
33 32 32 31 32 30 31 31 30 30 28 28 28 27 27 27 27 27 27 25 25 24 24 24 23 23 23 23 24 26 27 27 27 27 27 27 28 28 27 25 24 23
31 31 31 30 31 31 31 30 30 29 28 27 28 27 27 27 26 25 26 25 24 24 24 24 24 23 23 24 25 26 27 27 26 27 27 28 28 27 26 26 25 25
30 30 30 31 31 32 31 30 30 28 28 28 28 27 26 26 26 26 25 25 24 24 24 24 23 22 22 25 25 26 26 26 27 27 27 27 27 27 26 26 25 24
30 30 30 30 32 31 30 29 29 29 29 28 27 27 28 26 26 26 25 24 23 23 23 24 24 23 23 25 25 26 26 26 27 27 26 26 26 26 26 26 25 24
30 30 30 30 30 30 30 29 28 29 28 27 27 27 26 26 25 25 24 23 23 23 23 24 24 23 26 27 27 26 26 26 27 27 26 25 24 25 26 26 26 24
29 29 29 30 30 30 30 29 29 28 27 27 26 26 26 25 25 24 24 23 23 22 22 23 24 24 27 27 27 28 27 27 26 26 26 25 25 25 24 24 24 25
30 29 30 29 30 30 29 30 30 28 27 26 26 25 25 25 25 24 24 23 23 22 21 23 23 27 27 26 27 27 28 27 27 26 24 24 25 25 24 24 24 25
29 29 29 28 29 29 30 30 30 28 26 25 25 25 25 25 24 24 23 23 22 21 21 21 21 26 27 26 26 27 28 28 26 25 24 24 24 24 24 25 25 25
30 29 29 28 29 30 31 31 30 28 27 25 25 25 24 24 23 23 23 22 21 21 20 21 21 25 27 26 26 27 28 28 25 25 25 25 25 25 25 24 24 24
30 29 29 28 29 30 31 31 30 28 26 25 25 25 24 24 23 23 22 22 21 21 20 20 22 26 27 26 26 26 28 27 25 25 25 25 25 24 24 24 24 25
30 28 28 28 29 29 30 30 29 27 26 24 24 24 25 24 23 22 22 21 21 20 20 18 20 25 26 26 25 26 27 24 24 24 24 24 24 24 25 25 25 24
29 29 28 28 28 29 28 28 27 26 25 24 23 23 23 23 21 21 22 21 20 20 18 17 18 23 26 25 25 26 25 23 23 23 23 23 23 23 24 24 24 24
29 28 28 28 27 27 27 27 27 26 25 24 23 22 22 22 21 20 21 21 20 20 19 17 17 22 25 25 24 25 24 22 22 22 22 23 22 23 23 23 23 23
29 28 28 27 27 26 25 25 25 25 24 24 23 22 22 21 20 20 19 20 20 20 22 19 18 19 23 24 24 24 24 23 22 21 21 21 21 21 22 22 22 22
28 27 27 26 26 25 24 24 24 24 23 22 22 21 20 20 19 18 19 19 20 19 21 19 18 17 18 24 24 24 24 23 23 21 20 20 20 20 19 19 20 20
MSLP
1028.85 1028.93 1029.13 1029.41 1029.69 1029.85 1029.97 1030.01 1030.05 1030.05 1030.09 1030.17 1030.25 1030.29 1030.37 1030.41 1030.37 1030.29 1030.21 1030.13 1030.09 1030.01 1029.89 1029.81 1029.77 1029.69 1029.61 1029.53 1029.45 1029.33 1029.17 1028.93 1028.77 1028.61 1028.61 1028.61 1028.53 1028.33 1028.17 1028.17 1028.09 1027.97
1029.25 1029.41 1029.57 1029.81 1029.97 1030.09 1030.17 1030.25 1030.29 1030.33 1030.33 1030.37 1030.45 1030.57 1030.57 1030.53 1030.53 1030.45 1030.37 1030.29 1030.25 1030.17 1030.05 1029.97 1029.89 1029.81 1029.73 1029.69 1029.57 1029.45 1029.25 1029.01 1028.89 1028.77 1028.77 1028.73 1028.65 1028.45 1028.37 1028.25 1028.17 1028.01
1029.65 1029.81 1029.97 1030.13 1030.29 1030.37 1030.45 1030.49 1030.53 1030.57 1030.61 1030.69 1030.73 1030.77 1030.73 1030.73 1030.69 1030.57 1030.53 1030.49 1030.41 1030.33 1030.17 1030.13 1030.05 1029.97 1029.89 1029.81 1029.69 1029.57 1029.37 1029.21 1029.13 1029.05 1028.97 1028.93 1028.77 1028.65 1028.49 1028.33 1028.21 1028.09
1029.97 1030.13 1030.29 1030.45 1030.53 1030.57 1030.65 1030.69 1030.77 1030.85 1030.93 1030.97 1030.97 1030.93 1030.93 1030.93 1030.85 1030.81 1030.77 1030.69 1030.57 1030.45 1030.33 1030.25 1030.21 1030.13 1030.05 1029.97 1029.85 1029.73 1029.57 1029.45 1029.33 1029.21 1029.17 1029.01 1028.85 1028.73 1028.61 1028.49 1028.29 1028.21
1030.29 1030.45 1030.57 1030.65 1030.73 1030.77 1030.81 1030.93 1031.09 1031.17 1031.21 1031.25 1031.13 1031.05 1031.09 1031.09 1031.09 1031.01 1030.93 1030.81 1030.69 1030.61 1030.49 1030.41 1030.37 1030.33 1030.25 1030.13 1030.01 1029.93 1029.81 1029.69 1029.49 1029.37 1029.25 1029.17 1028.97 1028.85 1028.73 1028.61 1028.53 1028.49
1030.57 1030.73 1030.81 1030.85 1030.89 1030.93 1031.09 1031.25 1031.33 1031.41 1031.45 1031.41 1031.29 1031.21 1031.25 1031.21 1031.21 1031.17 1031.09 1030.97 1030.85 1030.73 1030.65 1030.57 1030.57 1030.49 1030.41 1030.29 1030.21 1030.13 1030.01 1029.89 1029.69 1029.53 1029.41 1029.33 1029.17 1029.01 1028.89 1028.81 1028.73 1028.65
1030.81 1030.89 1030.93 1030.97 1031.09 1031.25 1031.37 1031.49 1031.53 1031.57 1031.61 1031.57 1031.49 1031.45 1031.41 1031.33 1031.29 1031.21 1031.13 1031.09 1030.97 1030.89 1030.81 1030.77 1030.73 1030.69 1030.61 1030.45 1030.37 1030.29 1030.21 1030.05 1029.85 1029.73 1029.61 1029.45 1029.33 1029.17 1029.01 1028.93 1028.81 1028.69
1030.97 1031.01 1031.05 1031.17 1031.33 1031.53 1031.65 1031.69 1031.73 1031.69 1031.69 1031.73 1031.69 1031.61 1031.49 1031.45 1031.37 1031.29 1031.21 1031.17 1031.13 1031.05 1031.01 1030.97 1030.89 1030.85 1030.73 1030.65 1030.53 1030.49 1030.33 1030.13 1030.01 1029.93 1029.81 1029.61 1029.37 1029.17 1029.05 1028.97 1028.93 1028.77
1031.05 1031.13 1031.25 1031.41 1031.61 1031.77 1031.85 1031.85 1031.85 1031.81 1031.85 1031.89 1031.81 1031.73 1031.61 1031.53 1031.45 1031.37 1031.33 1031.29 1031.25 1031.21 1031.21 1031.13 1031.05 1031.01 1030.93 1030.81 1030.73 1030.65 1030.53 1030.29 1030.09 1029.97 1029.85 1029.69 1029.45 1029.25 1029.13 1029.05 1028.89 1028.77
1031.17 1031.37 1031.49 1031.65 1031.81 1031.93 1031.97 1031.93 1031.97 1031.97 1031.97 1031.93 1031.89 1031.85 1031.73 1031.65 1031.53 1031.49 1031.45 1031.41 1031.37 1031.37 1031.33 1031.25 1031.21 1031.13 1031.05 1030.97 1030.93 1030.81 1030.65 1030.41 1030.21 1030.01 1029.81 1029.61 1029.41 1029.25 1029.13 1029.09 1028.97 1028.81
1031.41 1031.57 1031.73 1031.85 1031.93 1031.97 1032.05 1032.05 1032.09 1032.09 1032.05 1032.01 1031.97 1031.93 1031.81 1031.73 1031.69 1031.61 1031.57 1031.53 1031.49 1031.45 1031.45 1031.37 1031.33 1031.21 1031.17 1031.17 1031.13 1030.89 1030.65 1030.41 1030.21 1030.01 1029.81 1029.57 1029.33 1029.21 1029.17 1029.17 1029.09 1028.93
1031.57 1031.73 1031.85 1031.93 1032.01 1032.09 1032.13 1032.17 1032.17 1032.13 1032.09 1032.05 1032.01 1032.01 1031.93 1031.89 1031.81 1031.77 1031.65 1031.61 1031.57 1031.53 1031.53 1031.45 1031.37 1031.29 1031.33 1031.33 1031.25 1030.93 1030.61 1030.37 1030.17 1030.01 1029.81 1029.61 1029.37 1029.25 1029.29 1029.25 1029.09 1028.93
1031.69 1031.81 1031.89 1031.97 1032.05 1032.13 1032.17 1032.17 1032.17 1032.17 1032.13 1032.17 1032.09 1032.05 1032.01 1031.97 1031.89 1031.85 1031.73 1031.69 1031.61 1031.61 1031.57 1031.49 1031.41 1031.37 1031.45 1031.41 1031.25 1030.89 1030.57 1030.37 1030.21 1029.97 1029.73 1029.53 1029.33 1029.29 1029.29 1029.17 1028.97 1028.81
1031.73 1031.85 1031.93 1032.01 1032.09 1032.13 1032.17 1032.17 1032.17 1032.17 1032.17 1032.17 1032.13 1032.13 1032.09 1032.05 1031.97 1031.81 1031.77 1031.73 1031.69 1031.65 1031.61 1031.53 1031.45 1031.49 1031.53 1031.45 1031.17 1030.89 1030.61 1030.41 1030.17 1029.93 1029.73 1029.57 1029.41 1029.37 1029.25 1029.09 1028.97 1028.85
1031.73 1031.81 1031.93 1032.05 1032.09 1032.13 1032.17 1032.17 1032.17 1032.17 1032.17 1032.17 1032.17 1032.17 1032.13 1032.09 1031.97 1031.85 1031.77 1031.77 1031.73 1031.73 1031.69 1031.57 1031.49 1031.53 1031.57 1031.41 1031.17 1030.89 1030.61 1030.41 1030.13 1029.93 1029.77 1029.65 1029.53 1029.37 1029.21 1029.05 1028.89 1028.77
1031.69 1031.81 1031.93 1032.01 1032.09 1032.13 1032.17 1032.17 1032.21 1032.21 1032.21 1032.17 1032.17 1032.17 1032.17 1032.09 1031.97 1031.89 1031.81 1031.81 1031.85 1031.81 1031.77 1031.65 1031.57 1031.61 1031.53 1031.37 1031.21 1030.93 1030.69 1030.37 1030.09 1029.89 1029.81 1029.73 1029.65 1029.41 1029.17 1028.97 1028.85 1028.77
1031.65 1031.81 1031.89 1032.01 1032.09 1032.13 1032.13 1032.17 1032.21 1032.17 1032.21 1032.25 1032.21 1032.21 1032.17 1032.09 1032.01 1031.93 1031.89 1031.89 1031.93 1031.93 1031.89 1031.77 1031.65 1031.61 1031.53 1031.41 1031.25 1030.97 1030.69 1030.33 1030.09 1029.93 1029.85 1029.81 1029.65 1029.45 1029.21 1029.09 1028.97 1028.77
1031.57 1031.73 1031.85 1031.93 1032.01 1032.09 1032.13 1032.17 1032.17 1032.17 1032.25 1032.29 1032.29 1032.25 1032.17 1032.09 1032.05 1032.01 1031.93 1031.97 1032.01 1032.01 1031.97 1031.81 1031.73 1031.53 1031.53 1031.45 1031.29 1030.97 1030.65 1030.29 1030.13 1030.05 1029.97 1029.81 1029.61 1029.41 1029.29 1029.13 1028.93 1028.73
1031.49 1031.61 1031.77 1031.89 1031.97 1032.09 1032.13 1032.13 1032.13 1032.21 1032.29 1032.33 1032.33 1032.25 1032.17 1032.13 1032.09 1032.05 1032.01 1032.01 1032.05 1032.09 1032.05 1031.89 1031.77 1031.61 1031.57 1031.49 1031.33 1031.01 1030.61 1030.33 1030.25 1030.21 1030.09 1029.89 1029.69 1029.49 1029.29 1029.09 1028.93 1028.77
1031.33 1031.41 1031.61 1031.77 1031.89 1032.01 1031.97 1032.01 1032.13 1032.25 1032.29 1032.33 1032.33 1032.29 1032.21 1032.13 1032.13 1032.13 1032.05 1032.05 1032.05 1032.09 1032.05 1031.97 1031.85 1031.65 1031.49 1031.49 1031.33 1031.01 1030.65 1030.37 1030.41 1030.25 1030.05 1029.89 1029.69 1029.49 1029.29 1029.17 1029.05 1028.81
1031.13 1031.25 1031.45 1031.61 1031.73 1031.81 1031.85 1031.93 1032.09 1032.21 1032.25 1032.33 1032.41 1032.37 1032.21 1032.13 1032.13 1032.13 1032.09 1032.05 1032.05 1032.05 1032.05 1032.01 1031.97 1031.65 1031.49 1031.45 1031.33 1031.05 1030.65 1030.57 1030.49 1030.29 1030.05 1029.81 1029.65 1029.49 1029.37 1029.21 1029.01 1028.77
1030.97 1031.09 1031.25 1031.45 1031.57 1031.61 1031.73 1031.89 1032.05 1032.17 1032.29 1032.41 1032.49 1032.37 1032.21 1032.13 1032.13 1032.21 1032.17 1032.05 1032.01 1032.01 1032.05 1032.17 1032.09 1031.77 1031.53 1031.45 1031.37 1031.09 1030.77 1030.73 1030.57 1030.37 1030.09 1029.81 1029.65 1029.53 1029.37 1029.17 1028.97 1028.81
1030.81 1030.97 1031.13 1031.29 1031.41 1031.53 1031.69 1031.89 1032.05 1032.21 1032.25 1032.41 1032.53 1032.45 1032.33 1032.21 1032.21 1032.25 1032.21 1032.05 1031.97 1031.97 1032.09 1032.17 1032.17 1031.85 1031.57 1031.49 1031.41 1031.17 1030.93 1030.85 1030.65 1030.41 1030.13 1029.85 1029.69 1029.61 1029.45 1029.21 1029.05 1028.93
1030.73 1030.89 1031.09 1031.25 1031.37 1031.53 1031.73 1031.89 1032.09 1032.17 1032.29 1032.41 1032.53 1032.45 1032.37 1032.29 1032.21 1032.25 1032.21 1032.09 1031.97 1031.93 1031.97 1032.05 1032.01 1031.85 1031.65 1031.57 1031.45 1031.25 1031.05 1030.97 1030.73 1030.49 1030.21 1029.93 1029.77 1029.65 1029.45 1029.29 1029.13 1028.93
1030.73 1030.93 1031.09 1031.25 1031.37 1031.57 1031.81 1032.05 1032.21 1032.29 1032.29 1032.37 1032.41 1032.37 1032.33 1032.29 1032.29 1032.29 1032.29 1032.17 1032.01 1031.89 1031.89 1031.93 1031.93 1031.93 1031.81 1031.61 1031.45 1031.33 1031.13 1030.97 1030.77 1030.53 1030.25 1030.01 1029.89 1029.61 1029.45 1029.29 1029.05 1028.89
1030.73 1030.93 1031.13 1031.21 1031.37 1031.65 1031.97 1032.13 1032.29 1032.29 1032.33 1032.37 1032.45 1032.41 1032.37 1032.41 1032.45 1032.41 1032.37 1032.25 1032.05 1031.93 1031.93 1031.89 1031.89 1031.93 1031.89 1031.61 1031.49 1031.37 1031.17 1031.01 1030.81 1030.57 1030.33 1030.13 1029.85 1029.69 1029.45 1029.25 1029.13 1028.89
Wind_Speed
6 5 6 6 6 5 6 5 5 5 4 5 5 5 5 5 5 5 5 5 5 5 5 5 5 5 5 5 5 6 6 5 5 4 4 6 5 5 5 5 5 4
6 7 6 6 6 5 4 4 4 4 4 4 5 5 4 4 5 4 5 5 5 5 5 5 5 5 5 5 5 6 6 5 6 3 6 6 5 6 5 5 5 6
6 6 6 6 5 5 5 4 5 5 6 5 5 5 3 4 5 4 5 5 5 5 5 5 5 5 5 5 5 6 5 6 5 6 6 5 6 5 6 5 6 7
6 6 6 5 4 4 4 5 5 6 5 5 4 4 4 4 5 5 5 5 4 5 5 5 6 6 5 6 6 6 5 6 5 5 5 5 5 6 7 7 7 8
5 5 4 4 4 4 5 5 5 5 4 5 4 3 4 4 5 4 5 5 4 5 5 5 5 6 6 5 5 5 6 5 5 6 6 7 6 7 7 7 9 9
5 4 4 4 4 5 6 5 4 4 5 4 5 3 4 4 4 4 4 5 5 5 5 5 5 5 5 5 5 5 5 6 6 8 8 7 7 7 6 8 8 8
4 4 4 4 5 5 4 4 4 4 3 4 4 4 4 4 4 4 4 5 5 5 5 5 5 5 5 5 4 5 5 6 7 8 9 7 8 9 8 8 8 9
4 4 4 4 4 4 4 4 4 3 3 4 4 4 4 4 4 4 4 5 4 5 5 5 5 5 5 5 5 5 6 6 7 8 8 8 8 9 9 7 8 9
4 4 4 4 5 4 4 3 3 4 3 4 3 4 4 4 4 4 4 5 4 4 5 5 5 5 5 5 5 6 8 8 8 8 9 9 9 9 9 9 8 6
4 4 5 4 4 3 3 3 3 3 3 3 3 4 4 4 4 4 4 4 4 4 5 4 5 5 5 4 6 7 8 9 8 8 8 9 9 9 9 8 7 6
4 4 4 3 3 2 2 3 3 3 3 3 3 4 4 4 4 4 4 4 5 4 5 4 4 4 4 5 7 8 8 8 9 8 9 9 9 9 9 7 7 6
4 4 3 3 2 3 2 1 2 3 3 3 3 4 4 4 4 4 3 4 4 4 4 4 4 4 4 5 7 8 8 8 8 8 9 9 9 8 6 6 6 5
4 3 3 3 1 1 1 1 2 2 3 4 3 4 4 4 4 4 4 3 3 4 4 4 4 3 4 5 7 8 9 9 9 9 9 8 7 6 6 6 6 5
4 3 3 1 1 0 0 1 2 3 3 3 3 4 3 4 4 4 3 3 3 3 4 3 3 2 3 6 8 8 9 9 9 9 9 9 8 7 6 5 5 5
4 3 2 2 0 1 1 2 2 2 2 3 3 3 3 3 4 4 4 4 3 4 4 4 3 2 2 7 8 9 9 9 10 10 9 9 8 8 7 6 4 4
4 3 2 1 1 1 1 1 2 2 3 2 3 3 3 3 4 4 3 3 3 4 4 4 3 2 7 12 12 9 9 9 9 9 9 8 7 7 8 7 6 5
4 3 3 2 1 0 1 2 2 2 2 3 3 3 3 4 3 4 4 3 3 3 4 4 3 1 10 12 13 15 11 9 10 8 7 7 7 8 8 7 6 6
4 3 2 2 1 0 0 1 1 2 2 3 3 4 3 3 4 4 3 3 3 3 4 4 3 5 10 12 13 14 14 11 8 7 6 6 7 7 6 6 7 8
4 3 3 3 1 0 0 1 1 2 3 3 4 4 3 3 3 4 3 3 3 3 3 3 3 6 10 12 13 14 16 14 7 7 8 7 7 7 7 8 9 9
4 3 4 3 2 0 0 0 2 1 2 2 3 4 3 3 3 4 3 3 2 2 3 3 3 6 10 12 13 15 16 14 7 8 8 8 8 8 7 8 8 9
4 4 4 3 2 2 1 1 1 1 2 2 3 4 4 3 3 4 4 3 2 2 2 3 4 9 10 12 13 15 16 12 8 8 7 7 6 6 7 8 8 7
4 4 4 3 3 1 1 1 1 1 1 2 3 4 4 3 3 3 4 4 3 2 2 3 4 10 10 12 13 14 16 8 8 8 8 8 7 7 8 8 7 6
4 4 4 3 2 1 2 1 1 1 1 2 3 4 4 4 3 3 4 4 3 2 2 3 3 7 10 12 13 15 12 8 8 8 8 8 7 8 9 9 8 8
4 4 4 3 2 2 1 1 0 1 1 1 2 4 4 4 3 3 4 4 4 2 2 3 3 5 10 12 12 14 12 8 8 8 8 8 8 9 8 8 8 13
4 4 4 4 3 3 3 1 0 0 1 1 2 3 3 3 3 4 4 5 4 3 3 3 3 3 9 11 12 12 11 8 8 7 8 8 9 9 8 8 8 8
4 4 4 4 4 3 3 2 0 1 1 1 2 3 3 3 3 3 4 5 4 3 3 3 3 2 4 12 11 12 13 9 7 7 8 9 9 9 9 8 8 7
Wind_Direction
49 49 62 65 54 49 44 30 23 22 26 30 32 4 21 14 357 348 342 341 343 342 344 350 349 342 342 346 341 335 324 318 341 333 8 353 322 325 338 358 350 336
50 48 51 59 54 45 44 42 23 37 18 25 35 14 7 8 344 344 346 344 349 343 341 351 348 345 348 350 335 334 322 335 333 355 5 347 336 342 350 352 344 334
58 57 54 55 53 45 38 30 29 33 24 21 28 5 360 3 344 343 357 350 343 341 343 352 351 347 352 345 341 334 325 345 344 4 0 346 341 345 341 345 334 337
60 62 62 55 49 46 49 38 32 26 17 13 9 354 19 351 343 356 352 342 344 341 344 355 354 350 351 346 344 330 348 348 348 359 347 343 341 347 341 340 335 337
69 61 55 53 37 46 44 43 30 24 17 1 357 353 22 354 349 353 342 339 349 343 349 357 356 352 350 345 345 346 350 341 343 345 347 346 344 347 342 339 341 339
65 69 66 58 54 42 45 35 32 31 12 356 339 3 12 352 348 349 343 343 348 348 349 355 355 349 346 345 345 349 342 345 344 346 348 347 347 345 343 342 337 335
71 67 57 58 56 43 47 33 21 32 13 341 356 353 4 346 351 346 346 347 347 349 352 353 353 348 347 343 345 348 348 345 344 350 345 346 344 341 345 340 339 334
80 66 59 51 60 54 33 35 11 16 12 355 4 332 358 351 345 347 351 348 351 351 350 352 348 352 346 341 349 354 346 347 349 348 346 342 341 341 342 342 336 331
82 71 71 65 62 42 43 22 5 359 20 353 358 338 351 350 344 352 354 349 352 352 350 347 353 352 348 347 356 355 348 347 344 344 344 341 340 339 338 337 332 327
81 74 55 53 62 67 24 22 6 11 358 355 1 346 348 342 353 356 354 350 347 353 350 347 356 351 348 358 359 351 345 342 342 341 340 338 334 333 336 335 329 327
90 77 73 57 74 60 39 15 6 11 350 353 6 344 343 352 349 352 350 349 347 354 347 350 353 345 351 14 352 345 340 339 338 339 338 334 333 333 337 337 332 328
92 88 92 91 59 46 30 18 3 0 354 348 2 340 343 354 345 342 343 341 345 353 345 348 346 340 17 9 343 340 338 337 338 336 336 331 329 336 347 337 317 316
93 102 95 88 80 117 11 6 358 356 9 345 342 341 351 341 334 336 330 343 341 354 342 340 336 350 33 357 340 338 339 340 338 337 333 332 330 342 337 314 304 304
125 115 103 97 135 30 66 8 5 1 357 335 341 344 343 329 332 325 324 349 347 347 337 330 335 31 28 353 341 340 341 339 337 334 333 332 333 335 323 318 322 327
136 127 144 162 161 103 33 2 345 355 338 337 341 341 336 325 320 323 336 341 348 345 337 331 342 37 19 349 342 339 341 337 336 334 332 330 331 331 327 320 313 308
146 164 150 137 94 46 9 356 348 341 330 345 338 334 333 323 322 331 338 339 350 343 336 335 342 62 351 346 345 341 340 335 334 333 333 331 328 324 326 330 329 324
152 158 139 96 72 28 36 6 334 322 346 350 334 338 335 324 328 335 330 349 1 344 331 330 336 6 347 345 342 344 341 337 336 333 333 327 325 327 330 332 327 324
144 135 115 116 149 118 50 315 314 344 4 342 333 334 324 329 334 327 335 6 354 339 326 325 321 338 347 344 342 343 342 341 339 335 332 324 322 324 325 322 324 324
133 132 141 147 151 159 214 277 9 17 359 338 329 316 327 337 325 335 341 354 346 336 324 325 317 338 343 344 342 343 342 345 342 335 327 324 322 323 323 325 327 325
137 138 150 153 155 174 269 211 62 7 332 331 334 325 321 327 328 334 332 333 329 338 320 318 328 328 342 345 344 344 343 349 341 332 327 321 324 324 324 327 323 320
148 156 151 158 166 183 217 112 67 30 347 349 340 312 314 323 335 337 326 324 329 336 318 329 336 330 343 346 346 345 346 352 338 332 326 320 321 324 324 321 316 314
163 162 156 162 165 181 142 92 78 21 348 7 336 312 312 328 335 337 319 316 318 330 342 352 328 333 343 348 347 346 349 348 340 332 326 324 322 327 323 319 317 320
165 159 158 157 144 123 98 90 80 344 14 29 329 305 312 319 319 323 310 308 317 331 12 341 309 324 345 349 348 347 351 344 339 329 326 325 326 328 323 322 325 325
161 152 150 146 134 131 118 102 76 54 67 17 291 296 306 304 311 318 311 316 316 334 344 318 298 335 349 348 347 348 348 343 335 330 324 327 326 323 322 319 318 319
148 145 148 152 141 131 123 126 79 63 255 284 293 296 296 315 327 326 319 316 312 321 330 331 325 354 350 343 346 346 346 340 336 328 325 330 327 324 323 320 318 318
150 146 145 150 144 133 114 103 117 293 1 1 309 311 317 324 326 324 314 310 316 341 334 328 332 348 342 341 344 343 343 340 333 327 329 327 326 327 323 322 320 317